sat.trackr.live / text

‹ back to catalog

STARLINK-4087

NORAD 53156 · 2022-083AA

PAYLOAD ACTIVE UNKNOWN

§ Identity

Operator
Country
US
Launch date
2022-07-17
Launch site
AFETR
Launch vehicle
Mass (kg)
RCS (m²)

Purposes: comms

External: N2YO · Heavens-Above · Gunter

§ Orbital elements

Epoch: 2026-05-25T02:05:32.878176Z

Period
95.44 min
Inclination
53.2154°
Eccentricity
0.0001277
Mean motion
15.08828800 rev/d
Perigee alt
538.9 km
Apogee alt
540.7 km
Semi-major
6,917.9 km
B*
-1.2670e-4
RAAN
181.0314°
Arg perigee
92.2461°
Mean anomaly
267.8678°
Rev number
21,289

§ Raw data

STARLINK-40871 53156U 22083AA  26145.08718609 -.00002303  00000+0 -12670-3 0  99902 53156  53.2154 181.0314 0001277  92.2461 267.8678 15.08828800212897

JSON: /api/v1/satellites/53156 · /tle

For live sub-satellite position, see the globe view (requires WebGL).

§ Visibility from observer

Set your observer location to see the next 7 days of passes ≥ 10°. The values pass through the URL so the page stays shareable.

No JS? Fill the form by hand. The geolocation button needs JavaScript.